Home > Weather > Bozeman > Past weeks

Flag for USA Past Weather in Bozeman, Montana, USA — Yesterday and Last 2 Weeks

Now
81 °F

Sunny.


Feels Like: 80 °F
Forecast: 54 / 85 °F
Wind: 5 mph from North

Location: Gallatin Field

Current Time: Jun 29, 2016 at 2:01:43 PM

Latest Report: Jun 29, 2016 at 12:56 PM


Visibility: 10 mi

Pressure: 30.05 "Hg (25.42 "Hg at 1469m altitude)

Humidity: 35%

Dew Point: 51 °F

Location of BozemanLocation

Past Weather in Bozeman — Graph

°F

Bozeman Temperature Yesterday

Maximum temperature yesterday: 91 °F (at 3:56 PM)
Minimum temperature yesterday: 54 °F (at 5:56 AM)
Average temperature yesterday: 73 °F

High & Low Weather Summary for the Past Weeks

 TemperatureHumidityPressure
High95 °F (Jun 23, 3:56 PM)96% (Jun 16, 2:56 AM)30.29 "Hg (Jun 16, 2:56 AM)
Low38 °F (Jun 17, 3:56 AM)9% (Jun 23, 3:56 PM)29.54 "Hg (Jun 14, 1:56 PM)
Average63 °F49%30.01 "Hg
* Reported Jun 14 11:56 AM — Jun 29 11:56 AM, Bozeman, Weather by CustomWeather, © 2016

Note: Actual official high and low records may vary slightly from our data, if they occured in-between our weather recording intervals... More about our weather records

Advertising

Bozeman Weather History for the Previous 24 Hours

Scroll right to see more
 ConditionsComfort  
Time TempWeatherWind HumidityBarometerVisibility
11:56 AM
Wed, Jun 29
78 °FSunny.7 mph40%30.07 "Hg10 mi
10:56 AM75 °FSunny.6 mph42%30.08 "Hg10 mi
9:56 AM72 °FSunny.No wind46%30.09 "Hg10 mi
8:56 AM69 °FSunny.7 mph53%30.09 "Hg10 mi
7:56 AM65 °FSunny.3 mph54%30.08 "Hg10 mi
6:56 AM58 °FSunny.3 mph70%30.07 "Hg10 mi
5:56 AM57 °FClear.3 mph69%30.06 "Hg10 mi
4:56 AM53 °FClear.5 mph74%30.04 "Hg10 mi
3:56 AM58 °FClear.5 mph65%30.02 "Hg10 mi
2:56 AM62 °FClear.3 mph56%30.01 "Hg10 mi
1:56 AM61 °FClear.7 mph58%30.01 "Hg10 mi
12:56 AM66 °FClear.7 mph49%30.00 "Hg10 mi
11:56 PM
Tue, Jun 28
68 °FClear.8 mph45%30.00 "Hg10 mi
10:56 PM71 °FClear.10 mph44%30.01 "Hg10 mi
9:56 PM71 °FSunny.3 mph39%30.11 "Hg10 mi
8:56 PM77 °FSunny.5 mph35%29.97 "Hg10 mi
7:56 PM87 °FSunny.6 mph21%29.96 "Hg10 mi
6:56 PM89 °FSunny.5 mph19%29.96 "Hg10 mi
5:56 PM89 °FSunny.8 mph17%29.97 "Hg10 mi
4:56 PM90 °FSunny.6 mph15%29.98 "Hg10 mi
3:56 PM91 °FSunny.7 mph16%30.00 "Hg10 mi
2:56 PM87 °FSunny.5 mph22%30.02 "Hg10 mi
Weather by CustomWeather, © 2016

See weather overviewHow to use our weather pages